USA 169 (MILSTAR-2 4)

Last updated on Sun Jun 21 2026 00:03:03 GMT+0000 (Coordinated Universal Time)

1 27711U 03012A 26170.92310350 -.00000271 00000+0 00000+0 0 9992 2 27711 12.3541 29.8224 0100758 9.2727 353.5115 1.00272889 32983
UTC large
Height (km)
Speed (km/s)
/
Latitude / Longitude
Inclination (degrees)
Orbital Period (minutes)
Azimuth
Elevation
Range (km)
Doppler Factor

Next 0 passes for location: London (51.5072 / 0.1276)

No passes found over London.
USA 169 (MILSTAR-2 4)